AO-07 1 07530U 74089B 18039.85019924 -.00000020 00000-0 15126-3 0 9993 2 07530 101.6693 009.1878 0011824 223.0440 190.4010 12.53631100978288 UO-11 1 14781U 84021B 18039.66752287 .00000047 00000-0 11997-4 0 9992 2 14781 097.6672 081.2447 0009498 137.7329 222.4619 14.82978850804390 LO-19 1 20442U 90005G 18039.86708369 .00000013 00000-0 20797-4 0 9997 2 20442 098.5992 339.2295 0011977 163.7441 196.4129 14.32886267465453 HUBBLE 1 20580U 90037B 18039.94680101 .00000442 00000-0 16145-4 0 9995 2 20580 028.4685 242.8108 0002637 197.8290 272.6742 15.08975829325991 MET-2/21 1 22782U 93055A 18039.90401359 .00000049 00000-0 30515-4 0 9996 2 22782 082.5491 195.7253 0023338 125.4974 347.6717 13.83806604234165 AO-27 1 22825U 93061C 18039.89867394 .00000013 00000-0 22930-4 0 9997 2 22825 98.8468 13.7995 0008560 8.2507 351.8814 14.30021292271238 IO-26 1 22826U 93061D 18039.87521050 .00000019 00000-0 25111-4 0 9992 2 22826 098.8409 013.8295 0008889 357.8313 002.2829 14.30352151271414 FO-29 1 24278U 96046B 18039.64060464 -.00000041 00000-0 -84097-5 0 9999 2 24278 098.5293 256.0179 0351370 084.4436 279.6663 13.53081147060603 NOAA-15 1 25338U 98030A 18039.91438098 .00000008 00000-0 22460-4 0 9990 2 25338 098.7765 056.2153 0009693 236.6613 123.3639 14.25838050026484 GO-32 1 25397U 98043D 18039.90721621 -.00000004 00000-0 17297-4 0 9994 2 25397 098.6375 342.5570 0002149 058.1899 301.9488 14.23639379017253 ISS 1 25544U 98067A 18039.95265046 .00001678 00000-0 32659-4 0 9999 2 25544 051.6426 297.9871 0003401 086.7895 100.1959 15.54072469098577 NO-44 1 26931U 01043C 18039.84848101 -.00000021 00000-0 23883-4 0 9996 2 26931 67.0499 200.5604 0005605 280.7931 79.2539 14.30493269854194 SO-50 1 27607U 02058C 18039.70118805 -.00000017 00000-0 18184-4 0 9993 2 27607 64.5556 122.7590 0049768 359.5597 0.5452 14.75417909814004 CO-55 1 27844U 03031E 18039.90672289 .00000056 00000-0 45159-4 0 9995 2 27844 098.6891 050.4431 0010224 028.5970 331.5766 14.22093173757928 CO-57 1 27848U 03031J 18039.90084116 .00000038 00000-0 37259-4 0 9997 2 27848 098.6979 050.7906 0010293 038.1972 321.9933 14.21699935757807 RS-22 1 27939U 03042A 18039.92744750 .00000114 00000-0 28873-4 0 9996 2 27939 097.9687 182.5347 0012808 189.6056 282.8709 14.66655189767874 NOAA-18 1 28654U 05018A 18039.95323715 .00000007 00000-0 29195-4 0 9992 2 28654 099.1615 072.6960 0015180 126.0324 234.2256 14.12366018655586 CO-58 1 28895U 05043F 18039.94780456 .00000128 00000-0 33390-4 0 9991 2 28895 097.8889 196.7392 0018117 113.5991 246.7116 14.63506379654889 Falconsat-3 1 30776U 07006E 18039.36143578 .00002785 00000-0 84491-4 0 9996 2 30776 035.4367 006.4765 0003980 292.0404 067.9899 15.33873104604522 CO-65 1 32785U 08021C 18039.88518199 .00000224 00000-0 29971-4 0 9996 2 32785 097.5532 058.1534 0014626 102.8351 257.4501 14.88057908530027 AAUSAT2 1 32788U 08021F 18039.65261520 .00000307 00000-0 33698-4 0 9990 2 32788 097.5355 071.4311 0013231 063.2250 297.0323 14.94213743530887 DO-64 1 32789U 08021G 18039.93577468 .00000673 00000-0 50622-4 0 9995 2 32789 097.5298 097.9074 0012897 023.0948 337.0856 15.05732381532388 CO-66 1 32791U 08021J 18039.84624905 .00000257 00000-0 31751-4 0 9997 2 32791 97.5455 63.1666 0014990 86.7722 273.5211 14.90462280530399 RS-30 1 32953U 08025A 18039.66669374 .00000008 00000-0 -12452-4 0 9992 2 32953 82.5011 92.6149 0020277 128.9038 231.3854 12.43081458440809 PRISM 1 33493U 09002B 18039.89362149 -.00000138 00000-0 -65747-5 0 9994 2 33493 98.1428 296.9773 0016512 24.4391 335.7612 14.96063533491165 NOAA-19 1 33591U 09005A 18039.90685482 .00000094 00000-0 76541-4 0 9998 2 33591 099.1267 015.4922 0013556 330.9029 029.1385 14.12252487463801 TISAT-1 1 36799U 10035E 18039.91428324 .00000491 00000-0 56109-4 0 9996 2 36799 098.0864 172.8989 0011080 269.0036 090.9912 14.90687734410847 JUGNU 1 37839U 11058B 18039.43990376 .00000313 00000-0 24738-4 0 9992 2 37839 019.9618 097.9402 0018724 267.8202 205.7944 14.12608601327031 SRMSAT 1 37841U 11058D 18039.48064998 .00000300 00000-0 19484-4 0 9990 2 37841 019.9716 144.2421 0011783 156.0426 286.8364 14.10597749326599 AO-71 1 37854U 11061E 18039.92783831 .00001354 00000-0 78513-4 0 9999 2 37854 101.7124 039.1829 0164793 093.7302 268.2770 15.05060740342088 HRBE 1 37855U 11061F 18039.90081975 .00000962 00000-0 57267-4 0 9995 2 37855 101.7248 36.7845 0177869 101.7740 260.3484 15.04032261342363 ALMASAT-1 1 38078U 12006B 18039.93343506 .00011625 38257-5 11452-3 0 9990 2 38078 069.4337 209.7946 0267725 298.8664 159.7024 15.34084467320947 HORYU-2 1 38340U 12025D 18039.90784681 .00000189 00000-0 35941-4 0 9996 2 38340 098.3744 057.1715 0010390 257.8672 102.1372 14.75495517297788 RS-40 1 38735U 12041C 18039.85020417 .00000037 00000-0 19444-3 0 9997 2 38735 082.4777 176.6304 0016573 230.8209 129.1398 12.42576629251067 BEESAT-3 1 39134U 13015E 18039.75038741 .00001431 00000-0 77613-4 0 9993 2 39134 064.8637 182.2617 0026195 227.9095 131.9804 15.18786750265018 BEESAT-2 1 39136U 13015G 18039.81949960 .00001007 00000-0 62162-4 0 9998 2 39136 064.8685 196.1959 0030147 250.8158 108.9704 15.15849966264741 ZACUBE-1 1 39417U 13066B 18039.86840320 .00000194 00000-0 30975-4 0 9994 2 39417 097.6025 075.2617 0058398 214.2226 145.5219 14.80871635227804 TRITON-1 1 39427U 13066M 18039.92111792 .00000166 00000-0 34812-4 0 9999 2 39427 097.6376 044.3851 0113051 310.8304 048.3141 14.67608149225578 GOMX-1 1 39430U 13066Q 18039.92419652 .00000276 00000-0 58998-4 0 9992 2 39430 097.6843 026.1389 0152137 015.9858 344.6067 14.59019235224267 LO-74 1 39440U 13066AA 18039.91457033 .00000165 00000-0 30318-4 0 9990 2 39440 097.6099 062.7203 0079223 251.7416 107.5162 14.75608804225803 AO-73 1 39444U 13066AE 18039.66094468 .00000223 00000-0 34033-4 0 9998 2 39444 097.6039 076.4262 0057668 210.7138 149.0696 14.81635826226033 SPROUT 1 39770U 14029E 18039.84578709 .00000312 00000-0 41318-4 0 9998 2 39770 97.8732 142.0257 0007454 268.9653 91.0716 14.86656919201297 DUCHIFAT-1 1 40021U 14033M 18039.81361619 .00000290 00000-0 35832-4 0 9990 2 40021 97.9177 318.3023 0011686 239.2039 120.8028 14.90191167197837 NANOSATCBR1 1 40024U 14033Q 18039.72468599 .00000323 00000-0 39917-4 0 9993 2 40024 97.9121 316.7016 0010984 241.3675 118.6438 14.89470927197756 EO-79 1 40025U 14033R 18039.76673265 .00000268 00000-0 34797-4 0 9995 2 40025 97.9090 315.4096 0011163 245.4420 114.5633 14.88631581197687 DTUSAT-2 1 40030U 14033W 18039.69816065 .00000246 00000-0 32654-4 0 9996 2 40030 097.9044 314.1955 0010644 239.8321 120.1841 14.88245154197111 EO-80 1 40032U 14033Y 18039.81785970 .00000236 00000-0 31668-4 0 9995 2 40032 97.9052 314.3190 0010595 239.8023 120.2144 14.88181033197638 ANTELSAT 1 40034U 14033AA 18039.62296022 .00000176 00000-0 33915-4 0 9991 2 40034 097.8298 280.8141 0057569 251.8459 107.6476 14.73858584195218 VELOX-1 1 40057U 14034E 18039.82902633 .00000256 00000-0 43600-4 0 9992 2 40057 98.1937 148.7564 0011414 28.3987 331.7838 14.77338386194690 DAURIA DX 1 1 40071U 14037C 18039.85990582 .00000095 00000-0 19695-4 0 9992 2 40071 98.3565 165.6533 0009072 23.6610 336.5024 14.81119656194004 UKUBE-1 1 40074U 14037F 18039.88641002 .00000275 00000-0 40412-4 0 9999 2 40074 098.3683 170.8248 0005025 026.5647 333.5823 14.83713928194272 HODOYOSHI-1 1 40299U 14070B 18039.86622381 .00000453 00000-0 22400-4 0 9997 2 40299 97.3861 123.8757 0012887 350.8601 120.7002 15.22719532180954 CHUBUSAT-1 1 40300U 14070C 18039.85232831 .00000408 00000-0 21213-4 0 9997 2 40300 97.3752 120.2410 0020256 358.2983 140.1376 15.21373264180763 QSAT-EOS 1 40301U 14070D 18039.87127602 .00001098 00000-0 47472-4 0 9990 2 40301 97.3691 121.0583 0026513 349.1274 102.7070 15.24305482180877 FIREBIRD FU3 1 40377U 15003B 18039.95770407 .00002149 00000-0 92573-4 0 9996 2 40377 099.1032 276.2210 0131842 297.2134 061.5709 15.16680761166871 FIREBIRD FU4 1 40378U 15003C 18039.88145470 .00002109 00000-0 90829-4 0 9993 2 40378 99.1034 276.1810 0132065 297.3605 61.4233 15.16692247166874 GRIFEX 1 40379U 15003D 18039.61081473 .00001510 00000-0 70631-4 0 9991 2 40379 99.1071 272.6068 0138797 309.0445 49.8494 15.13934958166642 NO-84 1 40654U 15025D 18039.09980369 .00007030 00000-0 12099-3 0 02130 2 40654 054.9910 258.4826 0168239 140.7772 220.5578 15.38237244035962 NO-83 1 40655U 15025E 18039.48801504 .00021613 00000-0 25892-3 0 02494 2 40655 054.9775 213.4263 0123838 166.7922 193.6405 15.52132401036267 DEORBITSAIL 1 40719U 15032E 18039.95574253 .00000371 00000-0 60776-4 0 9994 2 40719 097.9592 295.4591 0017755 099.7412 260.5804 14.76324659139258 NUDT-PHONESAT 1 40900U 15049B 18039.95617678 .00001949 00000-0 91460-4 0 9999 2 40900 097.4430 049.7288 0015165 115.2953 244.9856 15.20755372132421 XW-2A 1 40903U 15049E 18039.93168993 .00001809 00000-0 47373-4 0 9990 2 40903 097.3999 073.4408 0015732 128.8190 231.4463 15.39977189134063 XW-2C 1 40906U 15049H 18039.92868322 .00000636 00000-0 37484-4 0 9994 2 40906 097.4589 045.7969 0016642 112.2736 248.0263 15.15005336132071 XW-2D 1 40907U 15049J 18039.95938317 .00000689 00000-0 40186-4 0 9991 2 40907 097.4561 045.5411 0016032 110.1938 250.1020 15.15142861132087 LILACSAT-2 1 40908U 15049K 18039.94683806 .00000372 00000-0 24397-4 0 9996 2 40908 097.4669 045.0486 0017635 110.9146 249.3975 15.13400516131971 XW-2F 1 40910U 15049M 18039.93905447 .00001022 00000-0 56129-4 0 9997 2 40910 097.4570 046.6059 0016818 107.1150 253.1926 15.16244126132148 XW-2B 1 40911U 15049N 18039.90631314 .00000661 00000-0 38723-4 0 9992 2 40911 097.4599 045.9761 0015933 110.8334 249.4607 15.15091930131970 DCBB 1 40912U 15049P 18039.92340609 .00000934 00000-0 48549-4 0 9999 2 40912 097.4514 049.0886 0017293 096.2418 331.8803 15.18426246132208 TW-1C 1 40926U 15051B 18039.89652983 .00006146 00000-0 12351-3 0 9996 2 40926 97.2011 82.9073 0011648 36.0748 89.7249 15.46940336133467 TW-1A 1 40928U 15051D 18039.85004630 .00002446 00000-0 67578-4 0 9995 2 40928 097.2012 076.3271 0014210 068.5683 289.4047 15.37919036133045 IO-86 1 40931U 15052B 18039.79059346 .00000669 00000-0 40170-5 0 9992 2 40931 006.0016 345.6622 0013784 352.1524 007.8386 14.76563836127994 LQSat 1 40958U 15057A 18039.84844407 .00000003 00000-0 81497-5 0 9991 2 40958 97.9535 115.7334 0019083 32.6488 327.5884 14.73014402125957 AO-85 1 40967U 15058D 18039.50573211 -.00000023 00000-0 16452-4 0 02306 2 40967 064.7739 221.8779 0193341 354.5321 005.3673 14.75634834034662 ATHENOXAT-1 1 41168U 15077C 18039.32389031 .00001698 00000-0 56839-4 0 9999 2 41168 014.9874 243.2136 0011964 049.8058 131.2437 15.12431871118836 ChubuSat-2 1 41338U 16012B 18039.41273165 .00000335 00000-0 19433-4 0 9994 2 41338 031.0043 051.7710 0013888 238.1217 121.8067 14.99915509108483 ChubuSat-3 1 41339U 16012C 18039.44276136 .00000296 00000-0 16307-4 0 9992 2 41339 31.0104 50.3607 0013871 245.2488 114.6706 15.00107332108472 Horyu-4 1 41340U 16012D 18039.37081087 .00000507 00000-0 32110-4 0 9990 2 41340 031.0062 046.5792 0014103 255.6222 104.2848 15.00878005108529 OUFTI-1 1 41458U 16025C 18039.87285303 .00001065 00000-0 60307-4 0 9995 2 41458 98.1546 95.7910 0170253 217.2888 141.6398 15.04227942 98142 e-st@r-II 1 41459U 16025D 18039.85820818 .00000284 00000-0 19786-4 0 9997 2 41459 098.1529 095.6612 0170820 217.8939 141.0120 15.03983115098131 AAUSAT4 1 41460U 16025E 18039.88563531 .00002403 00000-0 12923-3 0 9998 2 41460 098.1482 096.0075 0163338 214.6911 144.3552 15.05262230098180 LO-87 1 41557U 16033B 18039.82516050 .00001259 00000-0 48805-4 0 9999 2 41557 97.4447 124.2542 0012404 248.9077 111.0837 15.27973317 94556 NuSat2 1 41558U 16033C 18039.81883073 .00001261 00000-0 49136-4 0 9992 2 41558 97.4475 124.3275 0011872 247.4754 112.5229 15.27804998 94544 Lapan A3 1 41603U 16040E 18039.86628753 -.00000039 00000-0 13849-5 0 9994 2 41603 97.4299 103.5989 0012720 336.5151 135.0349 15.19506398 90592 Swayam 1 41607U 16040J 18039.85501477 .00001360 00000-0 62899-4 0 9995 2 41607 97.4306 104.5503 0013071 334.5791 25.4800 15.21810821 90581 Pratham 1 41783U 16059A 18039.75513190 .00000023 00000-0 13732-4 0 9991 2 41783 098.1359 103.2783 0034581 137.4249 222.9643 14.62898881073187 AlSat 1N 1 41789U 16059G 18039.88859424 .00000063 00000-0 21159-4 0 9990 2 41789 098.1357 104.3741 0029717 129.3874 230.9951 14.64125182073243 ScatSat 1 41790U 16059H 18039.76227737 -.00000001 00000-0 11087-4 0 9997 2 41790 098.2790 089.7592 0019365 123.5000 236.8048 14.50859860072560 TY-1 1 41844U 16066D 18039.82929228 .00001023 00000-0 46551-4 0 9994 2 41844 097.4067 048.5316 0017242 123.5249 335.0690 15.22852174069340 CAS-2T 1 41845U 16066E 18039.93219647 -.00000020 00000-0 86122-5 0 9990 2 41845 098.7614 066.0556 0364876 265.4500 090.4920 14.37858377065517 Pegasus-1 1 41846U 16066F 18039.95706947 .00000201 00000-0 42359-4 0 9990 2 41846 098.7669 065.7061 0367519 267.4258 088.4816 14.37255071065483 STARS-C 1 41895U 98067KR 18039.82497413 .00210705 28816-4 48997-3 0 9990 2 41895 051.6285 259.7107 0004844 200.3374 159.7442 15.96640691065242 TO-89 1 41932U 98067KU 18039.93002562 .00018821 00000-0 16460-3 0 9997 2 41932 051.6375 277.9862 0004587 086.1926 273.9595 15.68951514060589 AOBA-V3LOX3 1 41935U 98067KX 18039.91213631 .00023505 00000-0 19012-3 0 9990 2 41935 051.6363 276.3405 0003970 092.5281 267.6171 15.70689782060707 OSNSAT 1 41939U 98067KZ 18011.28402027 .11925055 12489-4 54124-3 0 9997 2 41939 051.6147 038.9582 0001091 231.1728 128.9202 16.43639489055773 EO-88 1 42017U 17008BX 18039.88387462 .00001411 00000-0 61182-4 0 9996 2 42017 097.4652 105.6301 0008097 107.8401 252.3720 15.24014315054523 HAVELSAT 1 42700U 98067LH 18039.90790290 .00016738 00000-0 17314-3 0 9994 2 42700 051.6374 287.5730 0005611 128.1639 231.9863 15.64855649041893 SOMP2 1 42701U 98067LJ 18039.89943898 .00015388 00000-0 16329-3 0 9992 2 42701 51.6371 288.2661 0005629 127.0877 233.0633 15.64281293 41877 Columbia 1 42702U 98067LK 18039.91621083 .00184214 23496-4 60061-3 0 9990 2 42702 051.6275 273.1841 0005994 180.7844 179.3154 15.90287868042008 PHOENIX 1 42706U 98067LP 18039.95252612 .00015094 00000-0 16135-3 0 9990 2 42706 051.6372 287.8745 0001866 102.1377 257.9827 15.64120043041807 X-CubeSat 1 42707U 98067LQ 18039.91524495 .00016892 00000-0 17396-3 0 9995 2 42707 051.6352 287.5966 0002007 106.1736 253.9481 15.64970674041792 qbee 1 42708U 98067LR 18039.93943392 .00016532 00000-0 17293-3 0 9996 2 42708 051.6371 287.7716 0002038 105.5018 254.6202 15.64592038041758 ZA-AeroSat 1 42713U 98067LU 18039.94786176 .00013643 00000-0 15272-3 0 9993 2 42713 051.6364 289.3373 0002554 074.0283 286.0992 15.63034315041449 LINK 1 42714U 98067LV 18039.90290026 .00028663 00000-0 25885-3 0 9993 2 42714 051.6337 285.9943 0002472 090.2434 269.8846 15.67885605041595 UPSat 1 42716U 98067LX 18039.93852471 .00023323 00000-0 22223-3 0 9997 2 42716 051.6362 286.2679 0004240 131.6400 228.4960 15.66676590041614 SpaceCube 1 42717U 98067LY 18039.89685031 .00016316 00000-0 17140-3 0 9995 2 42717 51.6363 288.2404 0004282 128.4088 231.7292 15.64490352 40821 Hoopoe 1 42718U 98067LZ 18039.94792207 .00020008 00000-0 19982-3 0 9995 2 42718 051.6370 287.0834 0004205 128.1847 231.9527 15.65606877040846 Challenger 1 42721U 98067MA 18039.91630171 .00033144 00000-0 27534-3 0 9994 2 42721 051.6350 284.5819 0006233 118.7370 241.4254 15.69828004040577 NJUST-1 1 42722U 98067MB 18039.94410434 .00012276 00000-0 14133-3 0 9990 2 42722 051.6374 290.0657 0006933 111.8711 248.3021 15.62404017040504 UNSW-EC0 1 42723U 98067MC 18039.91700562 .00021033 00000-0 20852-3 0 9998 2 42723 051.6381 287.6389 0006400 113.1827 246.9843 15.65742560040517 DUTHsat 1 42724U 98067MD 18039.90347482 .00033636 00000-0 28781-3 0 9997 2 42724 051.6354 285.2680 0005560 120.0006 240.1543 15.69107041040480 LO-90 1 42725U 98067ME 18039.94207859 .00015949 00000-0 17353-3 0 9995 2 42725 051.6373 289.3031 0005963 114.6636 245.4980 15.63604405040430 nSIGHT1 1 42726U 98067MF 18039.91317458 .00006274 00000-0 84306-4 0 9994 2 42726 051.6392 292.8804 0006504 113.5431 246.6246 15.59353896040373 QBITO 1 42728U 98067MH 18039.92961149 .00016764 00000-0 17604-3 0 9990 2 42728 051.6393 288.4976 0003739 120.2291 239.9074 15.64477515040233 Aalto-2 1 42729U 98067MJ 18039.92422985 .00016961 00000-0 17725-3 0 9994 2 42729 051.6374 288.4361 0003675 120.2454 239.8906 15.64590784040249 SUSat 1 42730U 98067MK 18039.89940719 .00016094 00000-0 17233-3 0 9993 2 42730 051.6369 289.0118 0003762 116.7631 243.3749 15.64016295040230 i-INSPIRE II 1 42731U 98067ML 18039.95107942 .00019629 00000-0 19193-3 0 9998 2 42731 051.6362 287.0798 0006025 071.6895 288.4755 15.66143671040308 PolyITAN-2-SAU 1 42732U 98067MM 18039.90630814 .00017556 00000-0 18170-3 0 9994 2 42732 051.6368 288.2926 0006262 068.5857 291.5805 15.64796622040283 SNUSAT-1 1 42733U 98067MN 18039.90089695 .00016428 00000-0 17576-3 0 9996 2 42733 051.6370 289.0128 0006462 070.4181 289.7511 15.64006947040270 ExAlta-1 1 42734U 98067MP 18039.95661023 .00024433 00000-0 23703-3 0 9997 2 42734 051.6353 287.1155 0007532 092.9944 267.1913 15.66176787040252 Aoxiang-1 1 42735U 98067MQ 18039.92914980 .00012454 00000-0 14230-3 0 9993 2 42735 051.6368 289.9541 0007401 108.8747 251.3050 15.62580731041635 BeEagleSat 1 42736U 98067MR 18039.94732953 .00014903 00000-0 16410-3 0 9997 2 42736 051.6364 289.3227 0007201 108.9034 251.2741 15.63352299040334 Atlantis 1 42737U 98067MS 18039.88792792 .00108256 00000-0 50521-3 0 9994 2 42737 51.6267 277.5220 0005521 144.1736 215.9638 15.82457562 40379 CAS-4B 1 42759U 17034B 18039.78975694 .00000182 00000-0 24824-4 0 9993 2 42759 43.0188 68.0842 0008455 14.9058 325.0147 15.09183926 36049 CAS-4A 1 42761U 17034D 18039.77704861 .00000224 00000-0 27427-4 0 9990 2 42761 43.0188 68.0094 0008706 16.1568 318.9085 15.09259656 36035 UCLSat 1 42765U 17036A 18039.84711198 .00001239 00000-0 58060-4 0 9999 2 42765 097.4192 101.6712 0012529 159.3322 200.8423 15.21493160035784 NIUSat 1 42766U 17036B 18039.91476390 .00000908 00000-0 45053-4 0 9990 2 42766 097.4194 101.2861 0017036 148.1671 212.0598 15.20103387035044 LituanicaSAT 2 1 42768U 17036D 18039.72357080 .00001910 00000-0 89460-4 0 9999 2 42768 97.4203 101.2398 0016872 151.6313 208.5845 15.20808201 35032 Aalto 1 1 42775U 17036L 18039.84611784 .00000793 00000-0 39367-4 0 9993 2 42775 97.4190 101.3690 0015193 148.4017 211.8133 15.20504512 34990 URSA MAIOR 1 42776U 17036M 18039.83861617 .00000822 00000-0 40591-4 0 9999 2 42776 097.4195 101.3889 0015077 148.6349 211.5788 15.20569082034993 Max Valier Sat 1 42778U 17036P 18039.77569962 .00000859 00000-0 41751-4 0 9991 2 42778 97.4215 101.5232 0013572 153.4793 206.7140 15.21020582 34982 Pegasus 1 42784U 17036V 18039.80357534 .00001052 00000-0 50027-4 0 9994 2 42784 097.4195 101.5842 0013063 159.7427 200.4329 15.21325448034991 NUDATSat 1 42787U 17036Y 18039.82983053 .00001603 00000-0 73685-4 0 9997 2 42787 097.4199 101.7048 0012687 159.5542 200.6205 15.21753532034843 SUCHAI 1 1 42788U 17036Z 18039.91256208 .00001304 00000-0 60870-4 0 9993 2 42788 097.4195 101.7420 0012713 159.2867 200.8887 15.21537425035087 SKCUBE 1 42789U 17036AA 18039.84416947 .00001210 00000-0 56744-4 0 9995 2 42789 097.4194 101.6773 0012535 159.4085 200.7658 15.21525917034990 VZLUSAT 1 1 42790U 17036AB 18039.75558668 .00001534 00000-0 70575-4 0 9991 2 42790 097.4196 101.6398 0012234 159.8821 200.2900 15.21783549034986 VENTA 1 1 42791U 17036AC 18039.89660877 .00001167 00000-0 54746-4 0 9997 2 42791 097.4193 101.7580 0012146 159.5861 200.5863 15.21594945034993 Robusta 1B 1 42792U 17036AD 18039.69300150 .00001223 00000-0 57097-4 0 9996 2 42792 097.4193 101.5662 0012083 160.6560 199.5137 15.21661514034989 D-SAT 1 42794U 17036AF 18039.91429665 .00000267 00000-0 28969-4 0 9999 2 42794 097.6109 099.2953 0126928 349.6781 010.1835 14.90776964034618 BIRD-J 1 42820U 98067MU 18039.94710168 .00014168 00000-0 16133-3 0 9990 2 42820 051.6367 290.8233 0003069 060.8754 299.2547 15.62552108033796 BIRD-G 1 42821U 98067MV 18039.90304558 .00013950 00000-0 16067-3 0 9993 2 42821 051.6366 291.2793 0003146 063.1370 296.9946 15.62272384033767 BIRD-M 1 42822U 98067MW 18039.89857262 .00014198 00000-0 16274-3 0 9992 2 42822 051.6368 291.2515 0003161 065.4242 294.7081 15.62378598033762 BIRD-B 1 42823U 98067MX 18039.89982817 .00014830 00000-0 16946-3 0 9997 2 42823 051.6373 291.2695 0006132 076.0128 284.1548 15.62406831033763 BIRD-N 1 42824U 98067MY 18039.91128384 .00014116 00000-0 16235-3 0 9990 2 42824 051.6380 291.3542 0006019 076.4709 283.6955 15.62286806033761 TechnoSat 1 42829U 17042E 18039.89648677 .00000176 00000-0 23394-4 0 9994 2 42829 97.6068 307.0058 0012791 266.2801 93.6955 14.90764503 31225 Mayak 1 42830U 17042F 18039.93778878 .00000701 00000-0 76140-4 0 9999 2 42830 097.6078 307.1213 0012927 264.1596 095.8150 14.91103222031228 OBJECT MZ 1 42910U 98067MZ 18039.94913264 .00010863 00000-0 13559-3 0 9999 2 42910 051.6364 293.0746 0007286 093.2109 266.9718 15.60426989027335 OBJECT NA 1 42911U 98067NA 18039.92715477 .00011663 00000-0 14262-3 0 9995 2 42911 051.6374 292.9541 0006812 089.5743 270.6031 15.60884679027316 OBJECT NB 1 42912U 98067NB 18039.89215960 .00011640 00000-0 14431-3 0 9997 2 42912 051.6372 293.4350 0006324 100.8197 259.3508 15.60526358027328 OBJECT NC 1 42913U 98067NC 18039.95587058 .00021694 00000-0 23054-3 0 9996 2 42913 051.6361 290.8686 0005311 112.5210 247.6347 15.63967105027368 OBJECT ND 1 42914U 98067ND 18039.91222749 .00011087 00000-0 13950-3 0 9995 2 42914 051.6376 293.6012 0006246 095.2257 264.9449 15.60193582027299 QIKCOM-1 1 42983U 98067NF 18039.75992968 .00002398 00000-0 41745-4 0 9999 2 42983 51.6426 298.3693 0005375 87.2071 20.3911 15.55305567 16226 AO-91 1 43017U 17073E 18039.78390788 .00000974 00000-0 82601-4 0 9995 2 43017 097.6994 336.3465 0259794 329.8877 028.7610 14.77889505012147 EcAMSat 1 43019U 98067NG 18039.92866091 .00004418 00000-0 70053-4 0 9995 2 43019 051.6402 297.4752 0005670 061.6956 298.4607 15.55653961098575 PICSAT 1 43131U 18004W 18039.74806898 .00001732 00000-0 78281-4 0 9999 2 43131 097.5517 101.9948 0010047 178.6726 181.4538 15.22287214004175 AO-92 1 43137U 18004AC 18039.81120321 .00000965 00000-0 44874-4 0 9991 2 43137 097.5517 102.0645 0009562 180.2401 179.8832 15.22411606004189 TianYi 2 1 43155U 18008A 18039.84207074 .00000201 00000-0 16165-4 0 9994 2 43155 97.5371 116.4376 0016857 223.0340 239.5340 15.10325824 3113 2018-008C 1 43157U 18008C 18039.91689795 -.00000102 00000-0 -24029-5 0 9999 2 43157 97.5424 116.4998 0014725 211.9561 235.4080 15.09493185 3128 2018-008D 1 43158U 18008D 18039.92217928 .00000003 00000-0 41629-5 0 9999 2 43158 97.5356 116.4913 0012940 213.9660 262.2165 15.09498025 3107 /EX